Regional Weather Roundup
Issued by NWS State College, PA

Home | Current Version | Previous Version | Text Only | Print | Product List | Glossary Off
Versions: 1 2 3 4 5 6 7 8 9 10 11 12 13 14 15 16 17 18 19 20 21 22 23 24 25 26 27 28 29 30 31 32 33 34 35 36 37 38 39 40 41 42 43 44 45 46 47 48 49 50

657
ASUS41 KCTP 210003
RWRCTP
REGIONAL WEATHER ROUNDUP
NATIONAL WEATHER SERVICE STATE COLLEGE PA
700 PM EST SAT JAN 20 2018

Note: "fair" indicates few or no clouds below 12,000 feet with no
significant weather and/or obstructions to visibility.

* = STATION THAT DOES NOT REPORT PRECIPITATION /E.G. RAIN...SNOW...ETC/
    THUNDER OR FOG.

PAZ002>004-007>009-013>016-020>023-029>032-210100-
WESTERN PENNSYLVANIA

CITY           SKY/WX    TMP DP  RH WIND       PRES   REMARKS
ERIE           FAIR      32  27  81 CALM      30.03R
MEADVILLE      FAIR      36  26  67 S6        30.03R
FRANKLIN*      NOT AVBL
NEW CASTLE     FAIR      39  29  67 SW5       30.07R
BEAVER COUNTY  NOT AVBL
BUTLER*        NOT AVBL
PITTSBURGH INT FAIR      42  28  57 SW6       30.06R
PITTSBURGH     FAIR      41  27  57 SW8       30.06S
INDIANA*       PTCLDY    39  30  70 W5        30.09S
LATROBE        CLEAR     37  30  75 SW7       30.09R
WASHINGTON CO* NOT AVBL
$$

PAZ004>006-010>012-017>019-024>028-033>037-041-042-045-046-049>053-210100-
CENTRAL PENNSYLVANIA

CITY           SKY/WX    TMP DP  RH WIND       PRES   REMARKS
BRADFORD       FAIR      37  26  64 SW6       29.99R
DUBOIS         FAIR      35  25  66 SW5       30.02R
CLEARFIELD     FAIR      40  28  62 SW8       30.03R
JOHNSTOWN      FAIR      40  29  64 W14       30.03R
ALTOONA        FAIR      44  31  60 W13       30.04R
STATE COLLEGE  NOT AVBL
WILLIAMSPORT   FAIR      41  29  62 CALM      30.01R
SELINSGROVE    FAIR      35  28  75 CALM      30.03R
FT INDIANTOWN  FAIR      42  29  60 SW5       30.02R
CAPITAL CITY   FAIR      37  31  78 SW3       30.03R
HARRISBURG     MOCLDY    35  30  82 CALM      30.03R
YORK           FAIR      33  29  85 CALM      30.02R
$$

PAZ038>040-043-044-047-048-054-055-060>062-067>071-210100-
EASTERN PENNSYLVANIA

CITY           SKY/WX    TMP DP  RH WIND       PRES   REMARKS
SCRANTON       FAIR      41  27  57 SW6       29.99R
MOUNT POCONO   FAIR      35  26  69 W14       29.95R
ALLENTOWN      FAIR      39  28  64 SW6       30.01R
QUAKERTOWN*    FAIR      43  28  56 MISG      30.02R
READING        FAIR      42  32  67 CALM      30.02R
LANCASTER      FAIR      41  33  73 W5        30.03R
COATESVILLE    FAIR      45  32  61 CALM      30.03R
POTTSTOWN      FAIR      35  27  72 CALM      30.03R
BLUE BELL      FAIR      39  30  70 CALM      30.03R
DOYLESTOWN     FAIR      43  28  55 W5        30.00R
WILLOW GROVE   NOT AVBL
NORTH PHILA    FAIR      48  30  49 W6        30.03R
PHILADELPHIA   MOCLDY    47  30  51 W8        30.03R
$$




USA.gov is the U.S. government's official web portal to all federal, state and local government web resources and services.